User: anonymous   Login
Location: Bourg-d�Oueil
(42.8588°N, 0.4991°E)
Time: 20:11:11
(UTC+00:00)
Language:

Terra - Orbit

View from above orbital plane
View from above orbital plane
View from above satellite
View from above satellite

Ground track
Ground track

The orbit data is extracted from the following two-line orbital elements,

1 25994U 99068A   21270.55296896  .00000077  00000-0  27031-4 0  9994
2 25994  98.1681 343.0679 0001374  92.0309  16.5050 14.57131445158336
Epoch (UTC): 27 September 2021 13:16:16
Eccentricity: 0.0001374
inclination: 98.1681°
perigee height: 701 km
apogee height: 703 km
right ascension of ascending node: 343.0679°
argument of perigee: 92.0309°
revolutions per day: 14.57131445
mean anomaly at epoch: 16.5050°
orbit number at epoch: 15833

The dashed part of the orbit path shows where the satellite is in the earth's shadow,  

DLR